Change the Weather History Date:

Wednesday, August 7, 2013

  Actual Average Record
Temperature  
Mean Temperature 86 °F -  
Max Temperature 93 °F 90 °F 99 °F (1972)
Min Temperature 78 °F 73 °F 64 °F (1953)
Cooling Degree Days 20    
Growing Degree Days 36 (Base 50)    
Moisture  
Dew Point 76 °F    
Average Humidity 78    
Maximum Humidity 90    
Minimum Humidity 58    
Precipitation  
Precipitation 0.02 in - - ()
Sea Level Pressure  
Sea Level Pressure 29.94 in    
Wind  
Wind Speed 2 mph (WSW)    
Max Wind Speed 12 mph    
Max Gust Speed -    
Visibility 9 miles    
Events Rain , Thunderstorm    
Averages and records for this station are not official NWS values.
T = Trace of Precipitation, MM = Missing Value Source: NWS Daily Summary

Daily Weather History Graph

Daily Weather History Graph

Search for Another Location

Airport or City:

Trip Planner

Search our weather history database for the weather conditions in past years. The results will help you decide how hot, cold, wet, or windy it might be!

Date:

Astronomy

Aug. 07, 2013 Rise Set
Actual Time 6:18 AM CDT 7:45 PM CDT
Civil Twilight 5:52 AM CDT 8:10 PM CDT
Nautical Twilight 5:21 AM CDT 8:41 PM CDT
Astronomical Twilight 4:49 AM CDT 9:13 PM CDT
Moon 6:59 AM CDT (8/7) 8:02 PM CDT (8/7)
Length of Visible Light 14h 18m
Length of Day
13h 26m
New Moon, 1% of the Moon is Illuminated
Aug 7
New Moon
Aug 14
First Quarter
Aug 20
Full
Aug 28
Last Quarter
Sep 5
New

Hourly Weather History & Observations

Time (CDT) Temp. Heat Index Dew Point Humidity Pressure Visibility Wind Dir Wind Speed Gust Speed Precip Events Conditions
12:53 AM 79.0 °F - 75.0 °F 88% 29.93 in 9.0 mi Calm Calm - N/A   Clear
1:53 AM 80.1 °F 85.4 °F 75.9 °F 87% 29.91 in 9.0 mi Calm Calm - N/A   Clear
2:30 AM 80.6 °F 86.2 °F 75.2 °F 84% 29.93 in 9.0 mi Calm Calm - N/A   Mostly Cloudy
2:53 AM 79.0 °F - 75.9 °F 90% 29.93 in 8.0 mi Calm Calm - N/A   Scattered Clouds
3:39 AM 78.8 °F - 75.2 °F 89% 29.93 in 8.0 mi Calm Calm - N/A   Mostly Cloudy
3:53 AM 79.0 °F - 75.9 °F 90% 29.93 in 8.0 mi NNW 3.5 mph - N/A   Scattered Clouds
4:53 AM 78.1 °F - 75.0 °F 90% 29.93 in 8.0 mi North 3.5 mph - N/A   Clear
5:53 AM 78.1 °F - 73.9 °F 87% 29.93 in 9.0 mi Calm Calm - N/A   Clear
6:53 AM 78.1 °F - 73.9 °F 87% 29.95 in 8.0 mi Calm Calm - N/A   Clear
7:53 AM 81.0 °F 86.7 °F 75.0 °F 82% 29.97 in 9.0 mi Calm Calm - N/A   Clear
8:53 AM 84.9 °F 94.1 °F 75.9 °F 74% 29.97 in 10.0 mi NNW 4.6 mph - N/A   Clear
9:53 AM 88.0 °F 97.5 °F 75.0 °F 65% 29.98 in 10.0 mi NNW 5.8 mph - N/A   Scattered Clouds
10:53 AM 90.0 °F 100.2 °F 75.0 °F 61% 29.98 in 10.0 mi Calm Calm - N/A   Clear
11:53 AM 91.9 °F 103.2 °F 75.0 °F 58% 29.97 in 10.0 mi Calm Calm - N/A   Scattered Clouds
12:53 PM 91.0 °F 104.2 °F 77.0 °F 63% 29.96 in 10.0 mi South 5.8 mph - N/A   Mostly Cloudy
1:53 PM 93.0 °F 106.7 °F 77.0 °F 59% 29.94 in 10.0 mi South 10.4 mph - N/A   Scattered Clouds
2:42 PM 91.4 °F 105.1 °F 77.0 °F 63% 29.93 in 10.0 mi SSE 10.4 mph - N/A   Mostly Cloudy
2:49 PM 91.4 °F 105.1 °F 77.0 °F 63% 29.94 in 10.0 mi SSE 6.9 mph - N/A Thunderstorm Mostly Cloudy
2:53 PM 91.0 °F 102.9 °F 75.9 °F 61% 29.93 in 10.0 mi South 5.8 mph - N/A Thunderstorm Mostly Cloudy
3:34 PM 80.6 °F 86.2 °F 75.2 °F 84% 29.95 in 8.0 mi NW 11.5 mph - 0.01 in Rain , Thunderstorm Light Rain
3:53 PM 80.1 °F 85.4 °F 75.9 °F 87% 29.94 in 10.0 mi NW 3.5 mph - 0.02 in Rain Light Rain
4:53 PM 81.0 °F 87.3 °F 75.9 °F 85% 29.92 in 10.0 mi Calm Calm - 0.00 in   Partly Cloudy
5:53 PM 86.0 °F 96.9 °F 77.0 °F 74% 29.91 in 10.0 mi Calm Calm - N/A   Clear
6:53 PM 88.0 °F 101.3 °F 78.1 °F 72% 29.91 in 10.0 mi Calm Calm - N/A   Clear
7:53 PM 87.1 °F 99.8 °F 78.1 °F 74% 29.91 in 10.0 mi SSE 3.5 mph - N/A   Clear
8:53 PM 84.9 °F 96.6 °F 78.1 °F 80% 29.92 in 10.0 mi Calm Calm - N/A   Clear
9:53 PM 82.9 °F 93.8 °F 79.0 °F 88% 29.94 in 10.0 mi Calm Calm - N/A   Clear
10:53 PM 84.9 °F 96.6 °F 78.1 °F 80% 29.94 in 10.0 mi Calm Calm - N/A   Clear
11:53 PM 82.0 °F 91.0 °F 78.1 °F 88% 29.93 in 10.0 mi Calm Calm - N/A   Clear